Location: Zagreb
(45.8000°N, 16.0000°E)
Time: 07:52:48
(UTC+02:00)

Courier 1B - Pass Details

Date: 09 August 2020
Orbit: 962 x 1209 km, 28.3° (Epoch: 27 September)

Event Time Altitude Azimuth Distance (km) Brightness Sun altitude
Rises 00:37:37 0° 246° (WSW) 3,720 - -28.2°
Maximum altitude 00:44:14 10° 200° (SSW) 2,713 - -28.3°
Drops below altitude 10° 00:44:17 10° 199° (SSW) 2,712 - -28.3°
Sets 00:50:43 0° 153° (SSE) 3,626 - -28.4°
